Total_Precipitation_Accumulation
2.15 2.31 2.31 2.28 2.35 2.37 2.50 2.73 3.07 2.98 2.75 2.43 2.26 2.10 2.02 2.05 2.14 1.81 1.75 1.73 1.65 1.66 1.64 1.64 1.73 1.90 1.96 1.96 1.84 1.73 1.69 1.74 1.87 1.99 2.23 2.55 2.88 3.23
2.04 2.04 1.99 1.94 2.08 2.11 2.25 2.40 2.66 2.97 2.81 2.31 2.13 2.06 2.04 1.92 2.23 1.97 1.87 1.86 1.74 1.88 1.98 1.90 1.87 2.03 2.15 2.16 2.00 1.81 1.72 1.70 1.74 1.76 1.85 2.06 2.35 2.67
1.63 1.62 1.66 1.76 1.93 1.94 1.99 2.15 2.40 2.71 2.84 2.38 2.12 2.19 2.32 2.23 2.28 2.14 1.95 1.94 1.91 2.26 2.38 2.55 2.31 2.20 2.26 2.26 2.19 1.94 1.75 1.68 1.73 1.79 1.88 2.00 2.09 2.24
1.51 1.59 1.58 1.67 1.83 1.88 1.96 2.04 2.26 2.58 2.74 2.67 2.37 2.36 2.35 2.29 2.40 2.32 2.02 1.86 1.85 2.32 2.55 2.84 2.76 2.48 2.47 2.34 2.22 2.01 1.82 1.69 1.68 1.71 1.76 1.81 1.89 1.99
1.43 1.52 1.59 1.82 1.85 1.85 1.93 2.00 2.12 2.24 2.62 2.67 2.47 2.48 2.45 2.46 2.65 2.39 2.16 2.16 1.81 2.09 2.55 2.90 2.96 2.93 2.98 2.84 2.56 2.19 1.91 1.69 1.55 1.51 1.55 1.59 1.62 1.63
1.41 1.48 1.59 1.78 1.90 2.02 1.95 2.06 2.14 2.29 2.48 2.62 2.59 2.62 2.66 2.66 2.65 2.52 2.38 2.22 1.97 1.86 2.34 2.76 3.07 3.17 3.35 3.43 3.12 2.63 2.19 1.84 1.58 1.43 1.32 1.27 1.31 1.33
1.48 1.47 1.49 1.62 1.75 1.77 1.60 1.74 1.99 2.26 2.34 2.54 2.61 2.68 2.63 2.71 2.56 2.30 2.22 2.20 2.04 1.88 2.06 2.37 3.02 3.34 3.40 3.55 3.51 3.03 2.49 2.06 1.72 1.48 1.32 1.22 1.21 1.24
1.52 1.54 1.49 1.43 1.34 1.31 1.33 1.42 1.65 1.97 2.32 2.59 2.54 2.55 2.48 2.44 2.47 2.41 2.38 2.36 2.29 1.93 1.91 2.11 2.59 3.35 3.54 3.46 3.46 2.97 2.44 2.03 1.77 1.54 1.40 1.30 1.27 1.29
1.70 1.71 1.42 1.27 1.37 1.29 1.32 1.39 1.52 1.70 2.03 2.45 2.56 2.38 2.39 2.39 2.54 2.57 2.63 2.59 2.37 2.01 2.07 2.25 2.55 3.15 3.23 3.18 3.17 2.61 2.21 1.90 1.66 1.49 1.37 1.28 1.23 1.27
1.53 1.59 1.58 1.49 1.41 1.48 1.51 1.53 1.62 1.74 1.86 1.92 2.26 2.17 2.02 2.16 2.35 2.47 2.65 2.65 2.47 2.17 2.19 2.43 2.56 2.96 2.85 2.88 2.81 2.40 2.08 1.85 1.59 1.41 1.31 1.26 1.23 1.25
1.32 1.32 1.30 1.32 1.44 1.66 1.79 1.98 2.04 2.11 1.99 2.11 2.23 2.15 2.06 2.09 2.08 2.32 2.73 2.76 2.53 2.26 2.21 2.49 2.60 2.69 2.72 2.72 2.43 2.27 2.01 1.85 1.63 1.43 1.31 1.22 1.16 1.23
1.35 1.33 1.20 1.12 1.29 1.49 1.71 2.07 2.20 2.28 2.19 2.29 2.50 2.46 2.23 2.29 2.36 2.34 2.69 2.90 2.73 2.53 2.19 2.29 2.45 2.51 2.70 2.54 2.31 2.15 2.08 2.12 1.91 1.62 1.44 1.26 1.14 1.08
1.26 1.29 1.24 1.15 1.20 1.45 1.66 1.88 2.05 2.16 2.28 2.42 2.46 2.44 2.48 2.47 2.46 2.42 2.53 2.66 2.66 2.47 2.09 2.30 2.42 2.50 2.60 2.54 2.45 2.45 2.40 2.38 2.21 2.04 1.87 1.63 1.40 1.22
1.33 1.31 1.33 1.30 1.29 1.50 1.64 1.87 2.11 2.24 2.26 2.40 2.29 2.17 2.15 2.17 2.22 2.23 2.29 2.29 2.25 2.19 2.14 2.30 2.55 2.74 2.72 2.58 2.62 2.60 2.69 2.76 2.64 2.48 2.28 2.07 1.83 1.70
1.26 1.35 1.37 1.34 1.40 1.64 1.83 2.04 2.21 2.29 2.36 2.30 2.10 1.98 1.90 1.94 2.00 2.13 2.24 2.28 2.11 1.89 1.79 2.00 2.33 2.57 2.73 2.65 2.72 2.79 2.92 3.04 2.94 2.86 2.68 2.43 2.20 1.97
1.19 1.36 1.47 1.51 1.60 1.85 2.05 2.24 2.32 2.25 2.13 2.09 2.00 1.95 1.87 1.87 1.95 1.91 2.02 2.17 2.20 2.07 1.89 1.88 2.17 2.56 2.69 2.57 2.65 2.77 2.91 3.22 3.13 2.89 2.73 2.66 2.49 2.24
1.15 1.32 1.48 1.61 1.78 1.96 2.12 2.19 2.17 2.09 2.00 1.83 1.79 1.89 1.91 1.84 1.87 1.86 1.89 1.98 2.09 2.07 2.03 2.04 2.11 2.29 2.37 2.52 2.70 2.74 2.87 3.05 3.09 2.91 2.74 2.70 2.62 2.41
1.10 1.32 1.50 1.60 1.77 1.94 2.06 2.07 1.99 1.89 1.80 1.69 1.64 1.61 1.62 1.60 1.66 1.70 1.69 1.75 1.84 1.80 1.75 1.83 2.03 2.27 2.29 2.28 2.43 2.63 2.73 2.89 2.92 2.79 2.58 2.60 2.69 2.61
1.01 1.25 1.44 1.58 1.78 1.91 1.90 1.87 1.87 1.79 1.71 1.64 1.59 1.49 1.42 1.39 1.39 1.39 1.40 1.47 1.50 1.51 1.49 1.54 1.70 1.96 2.11 2.22 2.17 2.21 2.43 2.60 2.60 2.46 2.34 2.36 2.52 2.61
0.96 1.20 1.38 1.51 1.64 1.75 1.79 1.78 1.74 1.68 1.60 1.54 1.60 1.58 1.48 1.41 1.33 1.31 1.31 1.29 1.34 1.35 1.35 1.28 1.24 1.39 1.61 1.77 1.95 1.99 1.99 2.09 2.17 2.25 2.17 2.19 2.27 2.27
0.99 1.15 1.28 1.41 1.44 1.44 1.48 1.53 1.58 1.58 1.52 1.47 1.44 1.46 1.42 1.36 1.25 1.16 1.15 1.07 1.14 1.28 1.28 1.16 1.07 1.16 1.31 1.52 1.66 1.60 1.57 1.74 1.85 1.86 1.85 1.94 1.98 1.92
0.99 1.08 1.16 1.23 1.23 1.23 1.24 1.26 1.32 1.38 1.38 1.32 1.29 1.32 1.31 1.27 1.20 1.15 1.13 1.12 1.12 1.11 1.07 1.04 1.09 1.16 1.26 1.44 1.52 1.52 1.48 1.45 1.52 1.56 1.58 1.60 1.63 1.80
0.97 1.00 1.04 1.09 1.08 1.10 1.15 1.17 1.20 1.22 1.25 1.26 1.21 1.20 1.18 1.20 1.15 1.15 1.16 1.14 1.13 1.10 1.09 1.10 1.08 1.09 1.12 1.22 1.35 1.40 1.42 1.42 1.42 1.43 1.42 1.50 1.46 1.49